Lapse_Rate
7.2 7.2 7.3 7.3 7.1 6.9 6.9 6.9 6.8 6.7 6.8 6.8 6.8 6.9 6.8 6.8 6.8 6.8 6.8 6.8 6.8 6.8 6.8 6.8 6.7 6.9 6.9 6.9 7.0 7.0 6.9 6.6
7.4 7.5 7.6 7.4 7.2 7.1 6.9 6.9 6.8 6.8 6.8 6.9 6.9 7.0 7.0 6.9 6.8 6.9 6.8 6.8 6.7 6.8 6.9 6.8 6.8 6.8 6.8 6.8 6.8 6.9 6.9 6.9
7.5 7.6 7.7 7.6 7.5 7.1 7.0 6.9 6.9 6.9 6.9 7.1 7.0 6.9 7.0 6.9 6.8 6.9 6.9 6.8 6.9 6.8 6.9 7.0 6.9 6.9 6.9 6.8 6.7 6.7 6.6 6.7
7.5 7.5 7.7 7.6 7.6 7.2 7.0 7.0 7.0 7.1 7.0 7.1 7.1 6.9 6.9 7.0 7.0 6.8 6.9 7.0 7.0 7.1 7.1 7.1 7.1 7.0 7.0 6.8 6.6 6.7 6.7 6.7
7.3 7.2 7.4 7.4 7.7 7.5 7.2 7.2 7.2 7.1 7.0 7.0 7.0 7.0 7.0 6.9 6.9 6.9 7.1 7.3 7.3 7.3 7.3 7.3 7.3 7.1 7.0 6.9 6.8 6.7 6.7 6.6
7.3 7.2 7.3 7.3 7.5 7.4 7.4 7.3 7.2 7.3 7.3 6.9 6.9 7.0 7.0 7.0 7.1 7.2 7.2 7.3 7.4 7.3 7.3 7.4 7.3 7.3 7.2 7.0 6.8 6.7 6.6 6.6
7.2 6.9 7.0 7.2 7.0 7.1 7.2 7.2 7.1 7.1 7.2 7.0 6.9 7.0 7.2 7.3 7.2 7.4 7.4 7.4 7.4 7.5 7.5 7.4 7.3 7.3 7.4 7.0 7.1 6.8 6.7 6.5
7.0 6.6 6.5 6.8 6.9 7.0 7.0 6.9 6.8 6.6 6.6 6.8 6.9 7.1 7.1 7.3 7.3 7.5 7.5 7.5 7.5 7.5 7.4 7.4 7.3 7.2 7.2 7.2 7.2 7.0 6.9 6.5
7.0 6.7 6.4 6.7 6.8 7.0 7.1 7.3 7.3 6.7 6.9 7.0 6.6 6.7 6.8 6.8 7.3 7.4 7.5 7.5 7.5 7.4 7.3 7.2 7.3 7.2 7.1 7.1 7.2 6.7 6.2 6.3
7.3 7.1 6.5 6.6 7.1 7.0 7.2 7.1 7.1 7.0 6.9 6.9 6.6 6.5 6.1 6.3 7.0 7.2 7.3 7.2 7.3 7.4 7.3 7.3 7.3 7.3 7.3 7.2 7.1 6.6 6.5 6.1
7.5 7.5 7.2 6.8 7.1 7.3 7.2 6.7 6.4 6.6 6.6 6.3 5.9 4.9 5.4 5.9 6.4 6.8 7.0 7.1 7.2 7.2 7.2 7.4 7.4 7.5 7.4 7.4 7.3 7.2 6.8 6.0
7.7 7.7 7.6 7.2 7.1 7.3 7.1 6.9 6.5 6.5 6.3 6.2 5.7 5.2 5.1 5.8 6.1 6.3 6.8 7.1 7.0 7.0 7.1 7.2 7.3 7.3 7.4 7.2 7.4 7.2 7.0 6.2
7.6 7.8 7.8 7.4 7.2 7.0 6.9 6.7 6.5 6.0 6.2 6.2 6.1 5.4 5.1 5.2 5.5 6.1 6.2 6.2 6.6 6.6 6.6 6.7 7.2 7.1 7.3 7.4 7.3 7.3 7.1 7.2
7.7 7.6 7.6 7.4 7.1 6.8 6.5 6.2 6.4 6.0 6.3 6.2 5.4 5.6 5.6 5.6 5.5 5.7 6.0 6.3 6.6 6.3 6.4 6.5 6.6 6.9 6.9 7.1 7.1 7.3 7.4 7.4
7.5 7.5 7.2 6.8 6.5 6.3 6.3 6.1 6.1 6.0 5.9 5.7 5.7 5.5 5.7 5.7 5.4 5.1 5.3 5.7 6.1 6.0 6.1 6.5 6.4 6.6 6.6 6.6 6.9 7.1 7.3 7.3
7.3 7.2 7.1 7.0 6.7 6.2 6.0 6.3 6.0 5.9 5.8 5.7 5.9 5.4 5.3 5.4 5.3 5.6 5.3 6.0 6.2 6.4 6.8 6.6 6.4 6.3 6.5 6.8 6.7 6.8 6.8 7.0
7.2 7.2 7.0 6.7 6.4 6.2 6.1 6.1 5.8 6.2 6.6 6.6 6.6 5.9 5.7 5.8 5.9 5.8 6.0 6.5 6.7 6.6 6.7 6.9 6.8 6.6 6.4 6.1 6.2 6.5 6.5 6.7
7.0 6.8 6.7 6.5 6.3 6.2 6.1 6.1 6.1 6.3 6.4 6.6 6.4 6.4 6.3 6.2 6.3 6.3 6.5 6.7 6.7 6.6 6.5 6.6 6.9 6.8 6.2 6.6 6.2 6.1 6.4 6.4
6.7 6.6 6.5 6.4 6.4 6.4 6.4 6.5 6.4 6.4 6.4 6.5 6.4 6.2 6.3 6.4 6.5 6.7 7.0 7.2 7.2 7.1 7.0 6.7 6.8 6.6 6.3 6.1 6.3 6.4 6.3 6.2
6.5 6.5 6.4 6.5 6.5 6.4 6.5 6.5 6.5 6.5 6.5 6.6 6.6 6.6 6.5 6.5 6.7 7.1 7.2 7.2 7.2 7.3 7.4 7.2 7.1 7.1 6.9 6.5 6.1 5.9 6.0 6.2
Wind_Speed
14 16 15 15 16 17 18 18 18 17 17 17 16 15 14 14 11 11 9 10 11 9 8 8 5 4 3 2 1 4 8 3
11 14 15 16 15 16 17 16 16 16 15 15 14 12 12 12 11 10 10 9 9 9 9 7 6 5 4 3 4 8 11 6
11 12 13 14 14 14 13 12 13 12 12 12 12 12 13 13 9 14 11 10 9 8 8 8 7 8 8 6 7 12 6 8
11 11 12 13 11 12 13 13 14 14 14 14 13 10 11 9 9 10 9 9 8 8 9 9 10 11 9 10 12 6 7 7
13 11 12 12 10 12 11 11 11 10 12 12 11 8 7 9 9 11 10 11 12 14 13 13 8 6 5 6 6 7 5 5
13 10 9 11 11 9 11 9 9 10 10 10 7 7 6 5 5 3 5 5 4 6 5 4 4 2 4 3 1 2 1 3
13 12 11 10 8 8 7 9 10 9 6 6 6 6 4 5 3 3 2 2 3 4 3 3 3 2 2 3 7 6 7 10
12 13 11 11 8 9 7 8 7 5 6 6 5 3 3 5 2 1 1 2 0 2 2 1 0 4 5 7 9 10 12 14
11 10 10 11 10 8 6 7 7 8 9 10 8 6 5 2 2 1 2 1 0 1 2 2 5 7 7 9 11 11 11 15
11 9 11 10 8 7 6 11 13 13 15 16 20 6 4 2 3 2 2 2 1 1 1 2 1 4 6 6 8 12 9 13
12 12 12 11 7 12 14 14 12 12 12 14 19 22 6 4 3 3 2 3 3 2 1 1 3 5 7 7 7 6 9 12
14 10 11 11 8 9 8 7 9 11 7 11 17 3 7 7 4 2 2 2 3 3 4 2 2 6 7 7 7 7 9 8
13 10 10 9 7 7 7 5 8 5 4 9 10 9 4 5 2 1 1 2 2 3 4 5 4 7 7 6 6 7 7 6
10 10 9 6 6 7 6 5 6 7 10 10 11 9 10 9 4 1 3 3 4 5 5 5 5 8 5 6 3 2 5 5
10 10 9 7 10 9 8 7 6 5 6 7 11 13 10 10 11 6 3 2 2 2 4 7 7 8 10 6 3 4 3 2
10 10 10 8 10 11 12 8 7 5 6 5 5 4 8 9 7 6 2 2 3 2 4 6 7 8 8 8 5 3 4 3
10 11 10 11 11 9 7 6 5 6 5 7 4 4 4 4 5 5 3 3 2 3 4 5 6 8 8 8 8 5 4 2
12 12 12 10 8 7 7 6 6 6 6 7 6 6 6 6 5 3 2 2 3 4 4 5 5 6 7 8 8 8 7 6
10 11 11 10 8 7 6 4 4 3 5 4 5 4 4 5 5 3 3 4 3 3 3 4 5 5 6 7 7 9 7 7
8 9 9 8 8 7 6 4 3 3 3 2 2 1 2 4 4 4 3 3 3 3 3 4 4 4 6 6 6 6 7 8
Wind_Direction
159 169 171 172 174 175 173 171 170 171 172 171 169 169 170 165 167 162 156 147 148 149 149 149 154 150 152 151 255 286 279 235
163 167 173 179 179 180 180 176 176 180 178 176 174 170 170 173 166 168 163 161 162 161 163 165 161 172 175 205 250 260 251 237
169 167 173 179 181 176 177 181 181 180 181 181 176 192 184 171 178 153 170 173 177 179 179 183 193 198 203 212 242 247 257 252
177 171 171 173 178 166 186 183 191 196 195 188 200 205 201 198 160 168 177 184 191 200 206 209 220 233 188 209 236 282 256 267
183 175 170 180 167 176 184 188 198 202 205 197 200 192 176 203 180 188 191 190 205 195 199 219 244 276 253 241 253 248 264 261
179 178 173 188 173 184 180 189 183 200 197 196 186 194 187 209 213 188 211 217 243 244 233 249 248 255 276 248 300 0 323 62
186 181 190 187 188 177 172 196 194 196 178 184 202 206 194 185 184 218 242 254 267 257 270 241 224 279 167 141 88 66 52 67
189 188 193 174 184 181 183 190 158 157 144 170 188 189 136 195 181 210 258 279 329 283 327 260 184 63 96 112 101 88 77 83
182 178 173 188 184 181 185 171 129 97 66 29 54 62 68 20 63 27 11 43 177 222 179 167 119 89 87 81 77 73 87 88
146 147 164 182 177 169 161 77 80 70 61 40 359 39 106 118 102 96 73 90 65 240 257 174 149 141 112 77 80 79 72 82
136 155 163 162 132 97 92 97 98 98 97 90 65 317 16 74 98 107 131 133 142 108 89 40 135 105 87 74 63 70 64 79
134 155 150 121 109 106 106 106 95 97 102 110 115 187 329 61 55 94 149 164 142 149 133 104 168 125 103 76 59 48 80 69
136 137 127 133 128 126 127 120 97 98 110 104 121 132 83 55 71 109 229 204 130 173 148 169 164 143 131 93 65 58 66 75
105 114 123 120 122 125 130 149 113 149 151 150 150 156 146 133 119 294 258 195 189 190 201 193 204 194 215 155 160 130 63 59
106 108 105 104 121 124 112 107 106 159 184 173 184 158 150 146 151 139 263 257 213 221 232 223 217 209 229 222 161 212 126 102
119 126 128 135 146 140 149 171 174 198 183 169 161 157 165 171 122 134 204 263 280 226 232 251 244 222 210 234 278 104 190 164
135 137 144 161 171 175 166 158 178 147 152 149 149 165 204 124 131 139 176 207 218 253 239 240 253 257 235 220 237 224 240 164
146 153 156 160 165 162 176 160 168 167 160 167 176 174 172 155 144 141 150 241 240 231 217 232 253 269 271 257 237 222 216 223
153 164 160 165 172 176 175 184 182 175 172 178 160 162 161 157 162 157 197 216 224 238 230 246 244 235 244 257 252 259 252 237
158 169 164 176 185 189 185 191 199 218 196 190 189 190 150 142 172 193 208 227 231 234 257 273 278 263 261 251 253 247 253 249